Weather History for Denison, IA

Change the Weather History Date:

Friday, October 11, 2013

  Actual Average Record
Temperature  
Mean Temperature 63 °F -  
Max Temperature 75 °F 64 °F 82 °F (1997)
Min Temperature 51 °F 43 °F 30 °F (2014)
Degree Days  
Heating Degree Days 2    
Growing Degree Days 13 (Base 50)    
Moisture  
Dew Point 52 °F    
Average Humidity 65    
Maximum Humidity 82    
Minimum Humidity 33    
Precipitation  
Precipitation 0.00 in - - ()
Sea Level Pressure  
Sea Level Pressure 29.73 in    
Wind  
Wind Speed 17 mph (South)    
Max Wind Speed 29 mph    
Max Gust Speed 43 mph    
Visibility 10 miles    
Events      
Averages and records for this station are not official NWS values.
T = Trace of Precipitation, MM = Missing Value Source: NWS Daily Summary

Daily Weather History Graph

Daily Weather History Graph

Search for Another Location

Airport:

Trip Planner

Search our weather history database for the weather conditions in past years. The results will help you decide how hot, cold, wet, or windy it might be!

Date:

Astronomy

Oct. 11, 2013 Rise Set
Actual Time 7:29 AM CDT 6:45 PM CDT
Civil Twilight 7:01 AM CDT 7:13 PM CDT
Nautical Twilight 6:29 AM CDT 7:46 PM CDT
Astronomical Twilight 5:57 AM CDT 8:18 PM CDT
Moon 2:15 PM CDT (10/11) No Moon Set
Length of Visible Light 12h 12m
Length of Day
11h 16m
Waxing Crescent, 47% of the Moon is Illuminated
Oct 11
Waxing Crescent
Oct 11
First Quarter
Oct 18
Full
Oct 26
Last Quarter
Nov 3
New

Hourly Weather History & Observations

Time (CDT) Temp. Dew Point Humidity Pressure Visibility Wind Dir Wind Speed Gust Speed Precip Events Conditions
12:15 AM 62.6 °F 51.8 °F 68% 29.81 in 10.0 mi SSE 13.8 mph 19.6 mph N/A   Clear
12:35 AM 62.6 °F 51.8 °F 68% 29.81 in 10.0 mi SSE 13.8 mph 19.6 mph N/A   Clear
12:55 AM 62.6 °F 50.0 °F 63% 29.81 in 10.0 mi SSE 12.7 mph - N/A   Clear
1:15 AM 62.6 °F 50.0 °F 63% 29.80 in 10.0 mi SSE 15.0 mph 24.2 mph N/A   Clear
1:55 AM 62.6 °F 50.0 °F 63% 29.80 in 10.0 mi South 16.1 mph 23.0 mph N/A   Clear
2:15 AM 62.6 °F 50.0 °F 63% 29.80 in 10.0 mi South 15.0 mph 23.0 mph N/A   Scattered Clouds
2:35 AM 60.8 °F 50.0 °F 68% 29.80 in 10.0 mi SSE 12.7 mph - N/A   Scattered Clouds
2:55 AM 60.8 °F 51.8 °F 72% 29.82 in 10.0 mi South 10.4 mph 19.6 mph N/A   Clear
3:15 AM 60.8 °F 51.8 °F 72% 29.81 in 10.0 mi South 11.5 mph 17.3 mph N/A   Clear
3:35 AM 60.8 °F 51.8 °F 72% 29.80 in 10.0 mi SSE 15.0 mph 23.0 mph N/A   Clear
3:55 AM 59.0 °F 51.8 °F 77% 29.79 in 10.0 mi SSE 16.1 mph 23.0 mph N/A   Clear
4:15 AM 59.0 °F 51.8 °F 77% 29.78 in 10.0 mi SSE 15.0 mph 21.9 mph N/A   Clear
4:35 AM 59.0 °F 51.8 °F 77% 29.78 in 10.0 mi SSE 17.3 mph 24.2 mph N/A   Clear
4:55 AM 59.0 °F 51.8 °F 77% 29.77 in 10.0 mi SSE 18.4 mph 24.2 mph N/A   Clear
5:15 AM 59.0 °F 51.8 °F 77% 29.76 in 10.0 mi SSE 17.3 mph 23.0 mph N/A   Partly Cloudy
5:35 AM 59.0 °F 51.8 °F 77% 29.75 in 10.0 mi SSE 20.7 mph 27.6 mph N/A   Scattered Clouds
5:55 AM 60.8 °F 51.8 °F 72% 29.74 in 10.0 mi SSE 20.7 mph - N/A   Mostly Cloudy
6:15 AM 59.0 °F 51.8 °F 77% 29.74 in 10.0 mi SSE 17.3 mph 24.2 mph N/A   Partly Cloudy
6:35 AM 59.0 °F 51.8 °F 77% 29.73 in 10.0 mi SSE 16.1 mph 25.3 mph N/A   Partly Cloudy
6:55 AM 59.0 °F 51.8 °F 77% 29.72 in 10.0 mi SE 13.8 mph 23.0 mph N/A   Partly Cloudy
7:15 AM 59.0 °F 53.6 °F 82% 29.73 in 10.0 mi SSE 17.3 mph - N/A   Clear
7:35 AM 59.0 °F 53.6 °F 82% 29.69 in 10.0 mi SE 20.7 mph 27.6 mph N/A   Clear
7:55 AM 59.0 °F 53.6 °F 82% 29.68 in 10.0 mi SE 19.6 mph 26.5 mph N/A   Clear
8:15 AM 60.8 °F 53.6 °F 77% 29.71 in 10.0 mi South 19.6 mph 31.1 mph N/A   Clear
8:35 AM 60.8 °F 53.6 °F 77% 29.70 in 10.0 mi SSE 23.0 mph 35.7 mph N/A   Clear
8:55 AM 60.8 °F 53.6 °F 77% 29.67 in 10.0 mi SSE 23.0 mph 29.9 mph N/A   Clear
9:15 AM 60.8 °F 53.6 °F 77% 29.69 in 10.0 mi South 20.7 mph 31.1 mph N/A   Partly Cloudy
9:35 AM 60.8 °F 55.4 °F 82% 29.70 in 10.0 mi South 20.7 mph 31.1 mph N/A   Partly Cloudy
9:55 AM 62.6 °F 55.4 °F 77% 29.69 in 10.0 mi South 20.7 mph 32.2 mph N/A   Mostly Cloudy
10:15 AM 62.6 °F 55.4 °F 77% 29.69 in 9.0 mi SSE 23.0 mph 32.2 mph N/A   Overcast
10:35 AM 64.4 °F 57.2 °F 77% 29.68 in 10.0 mi SSE 27.6 mph 38.0 mph N/A   Overcast
10:55 AM 64.4 °F 55.4 °F 73% 29.68 in 10.0 mi South 21.9 mph 32.2 mph N/A   Mostly Cloudy
11:15 AM 64.4 °F 55.4 °F 73% 29.69 in 10.0 mi South 27.6 mph 34.5 mph N/A   Overcast
11:35 AM 64.4 °F 55.4 °F 73% 29.69 in 10.0 mi South 19.6 mph 31.1 mph N/A   Overcast
11:55 AM 64.4 °F 57.2 °F 77% 29.69 in 10.0 mi South 17.3 mph 27.6 mph N/A   Overcast
12:15 PM 66.2 °F 57.2 °F 73% 29.69 in 10.0 mi South 20.7 mph 28.8 mph N/A   Overcast
12:35 PM 66.2 °F 57.2 °F 73% 29.68 in 10.0 mi South 19.6 mph 28.8 mph N/A   Overcast
12:55 PM 68.0 °F 57.2 °F 68% 29.67 in 10.0 mi South 21.9 mph 28.8 mph N/A   Overcast
1:15 PM 69.8 °F 57.2 °F 64% 29.65 in 10.0 mi South 19.6 mph 31.1 mph N/A   Mostly Cloudy
1:35 PM 69.8 °F 57.2 °F 64% 29.65 in 10.0 mi South 23.0 mph 33.4 mph N/A   Mostly Cloudy
1:55 PM 71.6 °F 57.2 °F 60% 29.63 in 10.0 mi South 26.5 mph 36.8 mph N/A   Mostly Cloudy
2:15 PM 71.6 °F 57.2 °F 60% 29.62 in 10.0 mi SSE 25.3 mph 36.8 mph N/A   Partly Cloudy
2:35 PM 73.4 °F 55.4 °F 53% 29.62 in 10.0 mi South 28.8 mph 42.6 mph N/A   Clear
2:55 PM 75.2 °F 55.4 °F 50% 29.62 in 10.0 mi South 25.3 mph 33.4 mph N/A   Clear
3:15 PM 75.2 °F 55.4 °F 50% 29.63 in 10.0 mi South 20.7 mph 32.2 mph N/A   Clear
3:35 PM 75.2 °F 55.4 °F 50% 29.63 in 10.0 mi South 25.3 mph 36.8 mph N/A   Partly Cloudy
3:55 PM 75.2 °F 55.4 °F 50% 29.63 in 10.0 mi South 19.6 mph 32.2 mph N/A   Scattered Clouds
4:15 PM 75.2 °F 55.4 °F 50% 29.63 in 10.0 mi South 19.6 mph 34.5 mph N/A   Partly Cloudy
4:35 PM 75.2 °F 55.4 °F 50% 29.63 in 10.0 mi South 21.9 mph 31.1 mph N/A   Scattered Clouds
4:55 PM 75.2 °F 57.2 °F 53% 29.63 in 10.0 mi South 19.6 mph 32.2 mph N/A   Partly Cloudy
5:15 PM 75.2 °F 57.2 °F 53% 29.64 in 10.0 mi South 19.6 mph 32.2 mph N/A   Clear
5:35 PM 73.4 °F 59.0 °F 61% 29.65 in 10.0 mi South 18.4 mph 27.6 mph N/A   Clear
5:55 PM 73.4 °F 57.2 °F 57% 29.66 in 10.0 mi South 15.0 mph 28.8 mph N/A   Clear
6:15 PM 73.4 °F 57.2 °F 57% 29.67 in 10.0 mi South 15.0 mph 24.2 mph N/A   Clear
6:35 PM 71.6 °F 57.2 °F 60% 29.68 in 10.0 mi South 9.2 mph - N/A   Clear
6:55 PM 71.6 °F 41.0 °F 33% 29.69 in 10.0 mi SSW 9.2 mph 17.3 mph N/A   Clear
7:15 PM 69.8 °F 41.0 °F 35% 29.70 in 10.0 mi SSW 9.2 mph - N/A   Clear
7:35 PM 68.0 °F 41.0 °F 37% 29.72 in 10.0 mi SW 6.9 mph 23.0 mph N/A   Clear
7:55 PM 68.0 °F 44.6 °F 43% 29.74 in 10.0 mi West 10.4 mph 17.3 mph N/A   Clear
8:15 PM 66.2 °F 46.4 °F 49% 29.75 in 10.0 mi WSW 11.5 mph - N/A   Clear
8:35 PM 64.4 °F 46.4 °F 52% 29.76 in 10.0 mi West 12.7 mph - N/A   Clear
8:55 PM 62.6 °F 44.6 °F 52% 29.79 in 10.0 mi WNW 19.6 mph - N/A   Clear
9:15 PM 60.8 °F 44.6 °F 55% 29.80 in 10.0 mi West 11.5 mph 17.3 mph N/A   Clear
9:35 PM 59.0 °F 44.6 °F 59% 29.81 in 10.0 mi West 13.8 mph 20.7 mph N/A   Clear
9:55 PM 57.2 °F 44.6 °F 63% 29.82 in 10.0 mi West 11.5 mph 19.6 mph N/A   Clear
10:15 PM 55.4 °F 42.8 °F 63% 29.83 in 10.0 mi West 13.8 mph - N/A   Clear
10:35 PM 55.4 °F 42.8 °F 63% 29.84 in 10.0 mi West 16.1 mph 25.3 mph N/A   Clear
10:55 PM 53.6 °F 42.8 °F 67% 29.85 in 10.0 mi WNW 10.4 mph - N/A   Clear
11:15 PM 53.6 °F 42.8 °F 67% 29.85 in 10.0 mi WNW 9.2 mph 15.0 mph N/A   Clear
11:35 PM 51.8 °F 42.8 °F 71% 29.86 in 10.0 mi West 8.1 mph - N/A   Clear
11:55 PM 51.8 °F 42.8 °F 71% 29.86 in 10.0 mi West 6.9 mph - N/A   Clear